Location: Matera
(40.6670°N, 16.6000°E)
Time: 11:40:14
(UTC+01:00)

ISS - Pass Details

Date: 01 February 2019
Orbit: 403 x 411 km, 51.6° (Epoch: 18 February)

Event Time Altitude Azimuth Distance (km) Brightness Sun altitude
Rises 18:57:07 0° 310° (NW) 2,337 0.7 -20.3°
Reaches altitude 10° 18:59:55 10° 336° (NNW) 1,477 -0.8 -20.9°
Enters shadow 19:00:51 13° 351° (N) 1,302 -1.2 -21.0°
